User: anonymous   Login
Location: Unspecified
(0.0000°N, 0.0000°E)
Time: 17:24:30
(UTC+00:00)
Language:

Quakesat - Orbit

View from above orbital plane
View from above orbital plane
View from above satellite
View from above satellite

Ground track
Ground track

The orbit data is extracted from the following two-line orbital elements,

1 27845U 03031F   18145.60181663 +.00000078 +00000-0 +54960-4 0  9996
2 27845 098.6894 155.8300 0010244 098.7563 261.4775 14.22116719772836
Epoch (UTC): 25 May 2018 14:26:36
Eccentricity: 0.0010244
inclination: 98.6894°
perigee height: 811 km
apogee height: 825 km
right ascension of ascending node: 155.8300°
argument of perigee: 98.7563°
revolutions per day: 14.22116719
mean anomaly at epoch: 261.4775°
orbit number at epoch: 77283

The dashed part of the orbit path shows where the satellite is in the earth's shadow,  

DLR